Saint Simons Island, GA

10:35 PM EST on December 07, 2016 (GMT -0500)
McKinnon

Weather History for KSSI - January, 2013

Change the Weather History Date:

Sunday, January 13, 2013

  Actual Average Record
Temperature  
Mean Temperature 65 °F 51 °F  
Max Temperature 72 °F 60 °F 83 °F (1972)
Min Temperature 57 °F 42 °F 17 °F (1981)
Degree Days  
Heating Degree Days 0 14  
Month to date heating degree days 84 182  
Since 1 July heating degree days 554 713  
Cooling Degree Days 0 0  
Month to date cooling degree days 2 0  
Year to date cooling degree days 2 0  
Growing Degree Days 14 (Base 50)    
Moisture  
Dew Point 60 °F    
Average Humidity 84    
Maximum Humidity 100    
Minimum Humidity 68    
Precipitation  
Precipitation 0.00 in 0.10 in 2.38 in (1992)
Month to date precipitation 0.21 1.21  
Year to date precipitation 0.21 1.21  
Snow  
Snow 0.00 in - 0.00 in ()
Month to date snowfall 0.0  
Since 1 July snowfall 0.0  
Snow Depth 0.00 in    
Sea Level Pressure  
Sea Level Pressure 30.13 in    
Wind  
Wind Speed 5 mph (South)    
Max Wind Speed 10 mph    
Max Gust Speed -    
Visibility 5 miles    
Events Fog    
T = Trace of Precipitation, MM = Missing Value Source: NWS Daily Summary

Daily Weather History Graph

Daily Weather History Graph

Search for Another Location

Airport or City:

Trip Planner

Search our weather history database for the weather conditions in past years. The results will help you decide how hot, cold, wet, or windy it might be!

Date:

Astronomy

Jan. 13, 2013 Rise Set
Actual Time 7:24 AM EST 5:44 PM EST
Civil Twilight 6:58 AM EST 6:10 PM EST
Nautical Twilight 6:28 AM EST 6:40 PM EST
Astronomical Twilight 5:59 AM EST 7:09 PM EST
Moon 8:33 AM EST (1/13) 8:08 PM EST (1/13)
Length of Visible Light 11h 11m
Length of Day
10h 19m
Waxing Crescent, 5% of the Moon is Illuminated
Jan 13
Waxing Crescent
Jan 18
First Quarter
Jan 26
Full
Feb 3
Last Quarter
Feb 10
New

Hourly Weather History & Observations

Time (EST) Temp. Dew Point Humidity Pressure Visibility Wind Dir Wind Speed Gust Speed Precip Events Conditions
12:02 AM 62.6 °F 62.6 °F 100% 30.14 in 0.2 mi SE 3.5 mph - N/A Fog Fog
12:36 AM 62.6 °F 62.6 °F 100% 30.14 in 0.5 mi South 3.5 mph - N/A Fog Fog
12:53 AM 63.0 °F 63.0 °F 100% 30.14 in 0.2 mi South 3.5 mph - N/A Fog Fog
1:18 AM 60.8 °F 60.8 °F 100% 30.13 in 0.5 mi SE 3.5 mph - N/A Fog Fog
1:49 AM 60.8 °F 60.8 °F 100% 30.13 in 0.2 mi Calm Calm - N/A Fog Fog
1:53 AM 60.1 °F 59.0 °F 96% 30.13 in 0.2 mi Calm Calm - N/A Fog Fog
2:08 AM 59.0 °F 59.0 °F 100% 30.13 in 0.8 mi Calm Calm - N/A   Mist
2:34 AM 59.0 °F 57.2 °F 94% 30.12 in 0.2 mi Calm Calm - N/A Fog Fog
2:53 AM 59.0 °F 57.9 °F 96% 30.12 in 0.2 mi Calm Calm - N/A Fog Fog
3:12 AM 59.0 °F 57.2 °F 94% 30.12 in 0.8 mi Calm Calm - N/A   Mist
3:17 AM 59.0 °F 57.2 °F 94% 30.12 in 2.0 mi South 3.5 mph - N/A   Mostly Cloudy
3:22 AM 60.8 °F 59.0 °F 94% 30.12 in 4.0 mi South 3.5 mph - N/A   Scattered Clouds
3:53 AM 61.0 °F 60.1 °F 97% 30.11 in 10.0 mi South 3.5 mph - 0.01 in   Clear
4:53 AM 63.0 °F 61.0 °F 93% 30.09 in 10.0 mi South 3.5 mph - N/A   Clear
5:53 AM 64.0 °F 61.0 °F 90% 30.11 in 10.0 mi South 3.5 mph - N/A   Clear
6:15 AM 60.8 °F 59.0 °F 94% 30.11 in 1.8 mi Calm Calm - N/A   Clear
6:35 AM 60.8 °F 59.0 °F 94% 30.12 in 0.8 mi SW 3.5 mph - N/A   Mist
6:38 AM 60.8 °F 60.8 °F 100% 30.12 in 1.2 mi SW 3.5 mph - N/A   Partly Cloudy
6:41 AM 60.8 °F 60.8 °F 100% 30.12 in 3.0 mi Calm Calm - N/A   Clear
6:47 AM 60.8 °F 60.8 °F 100% 30.13 in 1.8 mi Calm Calm - N/A   Clear
6:53 AM 57.9 °F 57.9 °F 100% 30.13 in 0.5 mi Calm Calm - N/A Fog Fog
7:00 AM 59.0 °F 57.2 °F 94% 30.12 in 1.0 mi Calm Calm - N/A   Clear
7:11 AM 57.2 °F 57.2 °F 100% 30.13 in 0.8 mi Calm Calm - N/A   Clear
7:16 AM 57.2 °F 57.2 °F 100% 30.13 in 2.0 mi Calm Calm - N/A   Clear
7:30 AM 57.2 °F 57.2 °F 100% 30.14 in 0.8 mi Calm Calm - N/A   Mist
7:38 AM 57.2 °F 55.4 °F 94% 30.14 in 0.2 mi Calm Calm - N/A Fog Fog
7:53 AM 57.9 °F 57.9 °F 100% 30.15 in 0.5 mi Calm Calm - N/A Fog Fog
8:02 AM 57.2 °F 57.2 °F 100% 30.15 in 1.0 mi Calm Calm - N/A   Clear
8:08 AM 59.0 °F 59.0 °F 100% 30.15 in 3.0 mi Calm Calm - N/A   Clear
8:53 AM 64.9 °F 63.0 °F 93% 30.18 in 10.0 mi SW 3.5 mph - N/A   Scattered Clouds
9:53 AM 68.0 °F 63.0 °F 84% 30.19 in 10.0 mi SW 5.8 mph - N/A   Clear
10:53 AM 71.1 °F 63.0 °F 75% 30.18 in 10.0 mi South 4.6 mph - N/A   Clear
11:53 AM 72.0 °F 62.1 °F 71% 30.15 in 10.0 mi SSE 5.8 mph - N/A   Clear
12:53 PM 70.0 °F 62.1 °F 76% 30.12 in 10.0 mi South 6.9 mph - N/A   Clear
1:53 PM 71.1 °F 61.0 °F 70% 30.10 in 10.0 mi South 6.9 mph - N/A   Clear
2:53 PM 70.0 °F 61.0 °F 73% 30.11 in 10.0 mi South 8.1 mph - N/A   Clear
3:53 PM 69.1 °F 61.0 °F 75% 30.12 in 10.0 mi South 8.1 mph - N/A   Clear
4:53 PM 68.0 °F 61.0 °F 78% 30.13 in 10.0 mi South 8.1 mph - N/A   Clear
5:53 PM 64.0 °F 61.0 °F 90% 30.13 in 10.0 mi Variable 5.8 mph - N/A   Clear
6:53 PM 64.0 °F 61.0 °F 90% 30.12 in 10.0 mi SSE 8.1 mph - N/A   Clear
7:53 PM 63.0 °F 61.0 °F 93% 30.12 in 10.0 mi SSE 9.2 mph - N/A   Clear
8:53 PM 63.0 °F 61.0 °F 93% 30.13 in 10.0 mi South 4.6 mph - N/A   Clear
9:53 PM 63.0 °F 62.1 °F 97% 30.14 in 6.0 mi South 4.6 mph - N/A   Scattered Clouds
9:57 PM 62.6 °F 62.6 °F 100% 30.14 in 6.0 mi Calm Calm - N/A   Mostly Cloudy
10:29 PM 62.6 °F 62.6 °F 100% 30.15 in 10.0 mi Calm Calm - N/A   Scattered Clouds
10:53 PM 64.0 °F 63.0 °F 96% 30.15 in 10.0 mi South 4.6 mph - N/A   Mostly Cloudy
11:53 PM 66.0 °F 62.1 °F 87% 30.16 in 10.0 mi SSW 3.5 mph - N/A   Mostly Cloudy